Location: Asheville, NC
(35.6000°N, 82.5500°W)
Time: 22:46:29

Envisat - Pass Details

Date: 09 March 2018
Orbit: 764 x 766 km, 98.2° (Epoch: 18 March)

Event Time Altitude Azimuth Distance (km) Brightness Sun altitude
Rises 18:58:37 0° 131° (SE) 3,216 5.8 -6.1°
Reaches altitude 10° 19:01:22 10° 117° (ESE) 2,294 4.9 -6.7°
Maximum altitude 19:05:11 22° 67° (ENE) 1,622 4.2 -7.4°
Drops below altitude 10° 19:09:00 10° 18° (NNE) 2,304 5.3 -8.2°
Sets 19:11:45 0° 4° (N) 3,234 6.2 -8.8°
